User: anonymous   Login
Location: Squamish
(49.7000°N, 123.1500°W)
Time: 12:28:13
(UTC-08:00)
Language:

NOAA 19 - Orbit

View from above orbital plane
View from above orbital plane
View from above satellite
View from above satellite

Ground track
Ground track

The orbit data is extracted from the following two-line orbital elements,

1 33591U 09005A   14325.48303427  .00000412  00000-0  25033-3 0  4719
2 33591 098.9644 270.1785 0014608 039.3606 097.3066 14.11809521298180
Epoch (UTC): 21 November 2014 11:35:34
Eccentricity: 0.0014608
inclination: 98.9644°
perigee height: 842 km
apogee height: 864 km
right ascension of ascending node: 270.1785°
argument of perigee: 39.3606°
revolutions per day: 14.11809521
mean anomaly at epoch: 97.3066°
orbit number at epoch: 29818

The dashed part of the orbit path shows where the satellite is in the earth's shadow,  

DLR